Vorticity
5 5 6 6 7 8 7 7 8 7 7 6 6 5 5 6 6 6 6 5 6 8 9 8 7 8 8 8 9 8 7 7 6 4 4 4 2 3 4 3 5 6 4 2 2 3 3 2 1 2 3 3 3 4 4 6 7 9 10 11 10 7 6 7 7 6 7 8 7 6 6 8 8 8 8 8 7 7 6 5 5 6 6 6 6
7 5 5 5 4 6 6 7 7 7 7 6 5 6 5 5 5 5 6 7 8 8 8 7 8 7 7 7 6 6 5 4 4 3 3 3 2 4 4 2 3 4 3 2 3 3 2 3 3 3 3 3 3 4 4 7 10 10 10 11 10 8 7 7 7 7 9 8 8 8 6 7 8 8 9 9 8 7 6 5 5 5 5 6 6
7 7 6 6 6 6 6 7 7 6 7 7 7 7 7 7 6 6 7 8 7 9 8 6 7 5 4 5 3 3 3 2 3 2 2 2 2 2 3 3 3 2 1 1 1 1 3 4 4 5 4 4 4 5 5 6 10 10 10 11 10 8 7 6 8 9 10 9 9 10 9 9 10 8 8 9 9 7 7 6 5 5 5 7 7
4 6 5 6 8 8 7 5 5 6 6 8 8 7 9 9 9 9 10 10 8 9 7 4 6 4 2 4 3 3 4 3 3 2 2 2 1 1 1 1 1 0 -0 -0 -1 -0 3 5 6 7 6 5 4 5 6 7 9 9 10 11 9 8 7 6 8 9 9 8 9 10 10 10 11 10 10 11 10 8 7 6 5 5 5 6 8
2 2 3 5 7 7 9 7 6 6 6 7 8 8 9 10 11 12 11 10 8 8 7 5 5 2 2 4 3 2 2 3 3 2 1 0 -0 -0 0 0 -1 -1 -2 -1 1 3 6 7 7 8 7 6 6 7 7 7 9 9 9 10 9 7 6 7 8 7 6 6 7 8 8 9 10 11 11 13 13 11 9 7 6 5 4 5 6
3 3 3 4 6 5 7 9 7 7 5 5 6 7 8 9 11 11 11 9 7 8 7 5 4 2 2 3 3 2 2 3 3 1 1 1 1 1 1 1 1 1 2 5 8 9 10 9 8 8 8 7 7 8 9 7 9 9 9 10 9 7 5 7 8 5 4 4 4 5 6 7 8 9 10 12 14 14 13 11 9 7 5 5 4
6 6 5 4 6 6 6 6 6 6 5 4 6 7 6 7 8 9 9 9 7 7 6 5 4 3 3 2 2 3 2 2 2 1 1 1 1 3 4 6 8 10 11 13 13 13 13 10 8 8 8 8 9 10 10 9 10 11 10 9 10 8 6 7 6 4 3 3 3 3 4 4 5 6 8 10 12 13 13 12 11 10 8 6 4
9 7 6 5 6 7 7 7 6 6 7 8 7 7 7 5 6 8 7 7 6 6 5 5 4 3 3 2 1 1 1 2 2 2 1 2 5 9 12 12 14 15 15 15 14 14 13 10 8 8 9 9 10 11 10 9 11 12 10 9 9 8 7 6 5 4 4 2 2 2 2 2 2 4 6 8 10 11 11 11 11 11 10 8 6
8 8 8 7 6 7 8 8 8 7 8 10 8 7 7 6 6 7 6 5 4 4 4 4 4 4 3 1 1 1 2 1 0 2 4 8 10 11 11 11 12 14 14 13 12 11 10 9 10 10 11 11 9 10 9 9 11 12 10 9 9 8 6 6 5 4 3 2 2 2 2 2 1 2 4 6 7 9 10 11 11 10 8 9 8
8 10 9 7 6 6 8 8 9 9 10 9 7 7 7 8 6 5 5 5 4 4 3 3 3 2 2 1 1 1 1 2 5 8 10 11 11 9 10 9 9 10 10 10 9 8 8 9 10 9 8 8 8 9 9 8 10 12 11 9 9 8 7 6 5 4 4 3 3 2 2 2 2 2 4 7 6 6 8 9 10 10 8 7 6
6 6 6 6 6 6 7 9 10 10 10 8 7 7 7 7 6 5 5 5 5 4 3 4 3 3 3 2 2 2 3 7 9 10 9 9 8 8 9 8 7 6 7 8 8 7 7 7 9 9 8 7 6 7 8 8 9 11 11 7 7 8 6 5 4 3 4 3 3 4 3 3 3 3 4 7 6 4 5 5 6 8 8 7 7
2 4 6 5 5 6 6 7 10 11 11 9 6 6 5 6 5 5 6 4 4 5 5 4 4 4 5 5 6 7 8 10 10 9 9 9 9 9 9 9 8 6 6 6 6 7 7 7 8 9 9 8 6 7 8 7 7 9 9 7 5 6 5 4 3 2 3 3 4 3 3 4 3 4 5 6 7 5 5 4 4 6 7 7 6
1 0 2 3 3 5 5 5 8 11 13 11 8 7 6 6 5 6 7 7 7 7 6 5 6 7 8 9 9 10 10 9 8 8 8 9 9 8 9 8 7 7 8 7 6 5 4 5 6 8 8 9 8 8 8 8 7 7 8 7 4 4 4 4 2 1 1 3 4 3 3 3 4 4 6 7 7 7 5 3 5 6 4 4 4
3 -0 1 3 2 3 5 5 7 10 13 14 13 12 10 8 8 8 8 9 9 8 7 8 8 8 8 8 9 10 10 9 9 9 9 7 6 8 9 9 8 7 7 8 8 7 5 3 4 5 6 7 8 9 9 8 6 6 8 8 6 4 4 4 3 2 1 2 4 4 3 3 4 5 6 8 8 7 4 2 3 4 2 1 1
-0 2 10 12 8 6 7 9 10 11 13 15 18 19 18 14 11 9 10 11 10 8 9 9 7 6 7 9 10 10 10 9 8 7 5 5 6 8 9 7 6 5 5 6 7 7 7 5 4 5 6 7 7 8 9 9 8 8 10 9 8 6 4 4 4 3 2 3 5 5 5 4 5 6 6 8 8 6 4 2 2 2 2 2 2
12 17 20 17 12 9 9 9 9 8 10 13 16 19 20 16 11 11 12 11 10 10 9 7 5 7 9 10 9 8 8 7 7 7 7 8 9 8 7 7 6 4 3 4 4 5 7 9 8 7 7 7 7 6 7 8 9 10 11 11 9 8 6 5 4 4 4 4 6 6 6 6 7 7 8 9 7 5 4 3 3 2 1 2 4
17 23 18 11 7 6 7 7 5 5 9 14 14 14 15 15 12 11 10 9 9 8 6 6 8 10 10 8 6 6 5 5 6 8 8 8 7 5 6 8 7 7 8 7 5 6 9 11 12 12 10 10 9 7 5 6 8 10 12 12 11 9 9 8 5 4 4 4 6 8 7 7 8 8 9 8 5 3 3 4 5 4 3 2 3
5 6 6 7 4 3 5 5 4 6 12 16 16 12 12 12 11 8 7 7 7 6 8 11 13 11 7 5 6 6 7 8 8 8 8 5 3 3 5 6 7 9 9 3 2 6 13 17 16 12 10 10 11 9 6 4 4 7 11 12 12 11 10 11 9 7 6 5 5 8 8 7 8 8 8 7 5 4 5 6 5 5 4 4 5
3 -1 0 3 1 2 4 2 3 8 14 16 16 16 14 12 12 10 8 9 8 10 13 12 10 8 8 10 10 9 9 8 7 8 10 7 4 5 5 4 6 9 6 -1 -2 1 7 15 15 10 8 9 12 12 8 6 4 4 6 8 9 11 12 13 13 9 5 5 5 7 8 8 7 8 7 5 3 4 5 7 7 6 5 5 7
3 3 5 2 -1 1 1 -0 2 8 14 12 12 20 19 13 13 13 13 14 13 13 11 9 10 11 12 10 8 10 9 6 7 10 11 12 11 9 7 7 5 6 7 5 2 -1 -1 5 8 8 8 8 7 7 5 5 5 3 3 5 5 8 11 13 13 11 6 4 5 7 7 7 8 8 7 5 3 3 5 7 7 8 6 3 4
1 6 12 9 4 1 -1 -1 1 9 14 9 10 20 20 17 16 13 13 13 11 12 11 12 13 11 8 6 7 10 6 4 7 4 2 5 7 9 9 4 -0 1 4 3 2 7 8 6 6 6 8 9 4 -0 1 4 8 7 4 4 4 2 5 7 9 12 11 7 6 7 7 7 6 7 6 4 2 1 3 7 9 10 9 6 1
-1 0 5 10 10 3 -1 -1 1 9 13 8 12 20 20 19 16 13 14 14 13 15 13 11 9 4 4 5 7 8 5 6 10 9 10 5 2 14 14 -1 -2 2 4 6 8 15 18 12 7 2 3 12 7 -6 -6 1 7 12 11 10 6 1 -0 -0 0 6 12 11 7 6 7 5 4 5 5 6 6 4 4 9 12 10 9 8 3
8 4 -2 4 9 5 3 2 1 9 14 9 10 14 13 13 15 16 18 16 13 11 7 5 2 -1 1 1 2 6 6 7 8 10 16 7 0 17 17 7 16 11 -3 4 11 11 16 19 17 8 5 17 18 3 1 7 9 14 16 17 15 8 4 3 0 4 11 12 9 7 6 5 3 2 3 7 9 6 9 14 14 10 7 8 8
16 19 9 2 2 4 6 3 1 9 15 12 7 3 2 8 16 16 12 10 7 3 1 -0 -2 -2 -2 -1 5 9 6 11 13 5 6 8 5 14 11 6 22 22 3 5 3 -9 -0 14 18 14 9 18 29 17 3 6 17 20 14 15 17 11 7 7 4 6 12 13 10 8 7 6 4 3 4 9 10 9 12 14 10 8 8 8 10
12 23 20 11 7 8 8 4 3 8 13 13 8 5 4 10 14 9 6 5 2 0 -1 -4 -2 -2 -10 -10 2 9 7 5 1 -9 2 12 0 0 8 5 23 44 29 10 5 7 22 34 30 22 13 18 35 24 -6 -4 22 27 11 6 9 8 8 8 4 5 10 12 9 8 8 8 6 6 7 9 9 9 11 9 4 5 11 13 14
10 16 17 15 13 12 9 3 2 5 9 13 13 11 10 11 11 6 3 2 -1 -1 -2 -4 3 3 -7 -12 -4 14 22 2 -25 -27 -3 7 -13 -18 -8 -9 16 53 39 9 4 7 15 26 32 37 32 28 42 40 11 4 22 27 15 8 7 8 10 10 8 9 10 8 7 7 9 9 9 10 10 9 7 3 3 2 -1 1 9 15 16
8 7 10 13 8 7 7 3 4 5 7 11 12 11 11 10 9 2 -2 -1 -2 -2 -1 -1 4 4 0 -1 -4 14 37 24 -1 -3 5 5 -2 -5 -7 -12 3 25 19 11 16 10 6 12 22 33 23 -1 -0 11 6 2 12 23 24 18 10 6 7 9 11 14 13 7 4 6 8 9 9 10 7 3 -0 -3 -1 1 -4 -1 9 14 14
10 4 7 10 7 6 6 5 8 7 7 11 10 9 10 8 5 -1 -3 1 -1 -2 2 2 2 -1 -1 2 -3 0 13 10 7 16 15 6 0 2 7 8 9 12 9 11 20 24 23 18 16 23 18 -3 -13 -7 -3 1 9 19 25 23 16 8 6 9 12 12 11 8 4 3 5 8 8 8 7 3 0 -1 1 0 -3 -2 6 10 10
10 7 7 9 6 5 6 7 10 8 7 10 8 7 8 6 4 1 -0 1 -1 0 4 2 1 0 -2 0 -1 -4 -4 -6 0 17 26 19 5 3 12 10 8 17 18 11 12 17 14 9 11 16 18 15 8 3 3 5 11 18 21 27 28 16 6 8 10 8 10 14 13 5 1 4 4 1 2 2 0 -0 -2 -4 -3 0 5 10 9
8 10 8 9 7 4 5 7 9 9 9 10 9 9 9 6 5 3 0 1 -1 -2 -0 -0 1 3 3 3 4 3 2 2 5 9 13 9 -0 -0 5 2 -0 4 0 -3 9 18 14 12 14 7 2 6 10 13 17 15 16 19 19 28 33 23 14 15 11 6 6 9 9 5 3 8 9 6 6 2 -7 -11 -9 -8 -5 -3 -1 3 2
9 12 8 6 6 5 6 7 9 11 11 9 8 8 7 6 5 4 3 3 1 -3 -4 -1 1 3 1 -1 4 11 13 12 13 9 5 3 1 -1 0 1 -1 -3 -5 -2 8 15 14 13 9 2 2 7 12 20 22 16 14 17 19 30 35 22 16 22 21 11 5 5 7 9 9 9 8 7 12 15 7 -2 -1 -1 -4 -6 -7 -4 2
8 15 11 5 4 5 9 11 11 12 10 6 3 1 1 2 3 3 2 0 1 5 11 14 14 9 1 -2 6 12 10 8 9 4 -0 1 3 5 7 6 1 -2 -3 1 9 15 15 12 7 3 5 9 12 18 18 15 17 21 23 32 36 23 12 19 24 13 6 10 12 10 9 9 11 8 7 12 11 4 8 11 6 6 9 11 14
9 18 17 10 5 7 10 10 9 9 7 4 2 0 1 2 1 1 1 -3 -2 7 13 12 9 8 7 7 11 12 5 3 4 3 -0 -1 -2 -1 5 8 8 7 2 2 13 21 14 8 7 3 4 11 14 15 16 18 20 22 24 27 32 28 18 14 17 15 17 23 16 6 6 11 16 16 13 14 11 2 3 7 5 7 15 15 12
7 11 12 10 9 11 13 8 4 4 3 3 3 0 -1 1 0 -0 0 -1 -1 1 -0 -7 -8 0 5 4 6 9 7 3 3 5 3 1 -0 -2 -1 0 3 6 5 2 11 20 13 6 7 5 7 14 16 14 17 20 20 21 24 24 23 26 24 16 12 17 23 24 16 12 18 21 19 15 12 16 14 2 -1 5 5 8 13 11 8
0 2 6 11 15 17 14 7 1 0 1 3 1 -2 -1 0 -0 1 2 0 -1 -0 -3 -9 -12 -7 -3 -2 1 5 4 1 5 9 6 5 6 4 3 5 4 4 4 -2 4 18 16 6 5 5 8 15 19 19 18 19 19 18 22 24 20 19 20 13 5 8 13 13 13 12 14 16 17 14 10 9 5 -3 -1 10 14 12 11 8 6
-0 3 5 7 10 10 10 11 7 2 1 1 -3 -3 2 4 1 2 4 3 0 -1 -2 -7 -11 -12 -10 -6 1 4 4 2 2 5 4 4 5 -0 -1 4 6 7 6 -2 0 17 21 12 6 6 10 16 19 21 20 18 20 20 21 22 14 6 9 10 7 11 14 13 12 11 9 9 8 6 4 -1 -8 -6 5 16 16 12 10 8 6
0 5 4 3 4 2 3 6 6 1 1 2 -1 -5 -8 -7 -3 0 0 2 4 4 4 1 -4 -7 -7 -6 -2 3 4 1 1 4 4 4 4 1 -2 -1 1 7 11 3 1 16 25 18 8 7 11 16 16 18 18 15 17 22 22 21 13 5 7 11 8 7 7 4 3 7 13 15 10 6 5 2 -1 6 14 14 11 10 9 7 5
-2 3 5 4 4 5 4 2 0 -2 -3 -1 2 1 -3 -3 5 7 -2 -6 -1 1 0 1 2 2 1 -2 1 5 2 -2 0 2 -1 0 4 5 3 1 -5 -0 12 9 3 16 27 17 7 8 11 13 13 13 12 11 14 21 25 27 25 15 7 3 -2 -3 -1 -0 -0 2 6 6 6 8 12 14 15 14 10 8 9 10 7 6 7
-0 0 3 5 5 7 8 5 2 2 1 -2 -3 2 4 1 4 9 3 -3 4 5 -4 -4 5 10 6 2 4 6 1 -3 -1 0 -0 4 7 7 8 2 -10 -2 19 16 3 16 27 15 8 10 8 8 11 10 12 16 19 23 25 22 16 10 4 1 -0 1 3 3 2 3 5 7 10 13 14 15 14 10 8 9 10 8 7 7 8
4 -0 2 7 7 5 6 7 4 1 0 -1 -6 -7 -3 -5 -5 2 1 -1 11 18 7 -1 4 7 7 6 5 3 1 0 2 2 3 6 6 5 4 -6 -8 12 28 15 5 20 26 15 11 10 4 6 11 10 13 19 22 24 22 7 -4 -5 -3 -1 2 5 6 7 7 9 10 11 12 12 11 11 11 11 12 11 8 7 8 8 9
6 3 1 5 7 5 5 5 4 0 -2 -0 0 -2 -1 -1 -2 0 2 4 13 17 9 2 0 4 9 6 -0 0 4 7 9 7 5 6 5 3 -1 -3 8 24 19 6 14 29 24 11 9 6 1 6 13 13 13 17 16 11 2 -11 -15 -9 -3 3 9 12 12 12 11 10 9 8 8 8 9 10 11 11 10 8 7 7 7 9 11
4 4 1 3 6 5 5 3 3 5 3 -0 1 0 -1 1 1 1 5 9 10 8 5 3 3 9 13 3 -6 1 7 8 12 10 4 4 7 8 10 12 16 16 9 13 30 29 14 7 6 1 2 10 15 13 10 9 4 -3 -6 -5 1 6 10 14 18 19 17 13 8 5 6 8 9 9 9 9 9 9 8 8 7 7 9 11 12
2 3 3 5 5 4 6 5 4 7 9 9 10 8 6 6 10 13 13 9 6 6 6 6 5 7 9 2 -3 3 7 10 16 12 5 11 21 23 21 18 16 18 22 30 30 16 7 8 6 2 7 11 9 4 1 0 3 6 11 18 22 22 22 22 21 18 11 5 2 4 9 12 10 9 8 8 9 9 8 7 7 9 12 12 12
3 3 1 4 7 7 7 6 6 7 8 12 13 9 6 3 3 7 6 1 4 8 5 2 3 2 3 4 2 3 6 10 13 11 13 23 30 26 23 24 26 30 29 24 15 7 6 8 4 4 7 4 1 3 4 6 12 16 18 21 23 22 20 19 18 12 3 1 4 8 10 9 7 7 8 8 9 9 8 9 12 14 15 15 15
4 4 2 4 6 7 6 6 11 11 6 6 6 4 6 6 3 12 18 7 -1 1 -1 -4 1 4 4 6 7 7 10 10 11 17 26 31 30 26 26 27 25 21 17 12 8 6 6 5 3 4 2 -0 6 14 13 10 14 16 15 17 20 20 17 15 13 8 5 6 8 8 7 7 8 10 11 11 11 12 13 15 17 16 15 16 15
6 4 4 8 9 10 12 12 14 14 11 11 8 4 11 16 11 24 41 24 -5 -8 -1 -1 3 6 4 7 11 13 14 17 22 30 33 30 25 21 17 15 13 11 10 9 7 6 6 4 4 4 3 7 16 14 4 5 16 18 14 15 18 17 16 14 11 9 8 7 7 8 10 13 14 14 15 15 14 15 15 14 13 13 14 14 12
9 4 5 11 13 14 13 8 5 5 4 5 4 5 18 24 10 9 25 18 -3 -5 4 5 8 7 1 6 16 18 18 24 28 29 24 17 13 10 9 9 10 8 6 6 6 7 6 5 6 6 7 12 16 9 3 11 19 14 8 14 19 17 14 11 8 7 7 8 11 15 16 17 17 15 14 13 12 12 13 13 13 15 14 11 10
8 4 2 6 7 7 4 -1 -1 0 -2 -0 7 9 12 13 5 2 12 15 7 5 5 7 10 4 -3 7 21 19 17 20 19 13 9 6 5 7 8 7 6 4 4 5 6 7 8 8 9 9 11 14 14 11 10 13 13 10 12 17 17 11 8 7 5 7 11 14 16 15 14 15 15 13 13 13 13 14 15 16 17 16 11 8 11
8 5 4 6 6 0 -5 -8 -6 2 7 9 12 11 5 3 5 6 11 16 14 9 6 8 7 2 4 18 23 15 10 12 9 5 4 4 6 8 6 3 3 3 3 4 7 9 10 9 9 11 13 13 10 9 9 10 13 18 19 16 10 7 6 6 8 12 14 11 9 10 12 15 16 16 16 17 17 18 19 18 16 12 9 11 16
9 8 8 9 6 2 4 7 6 8 10 8 5 4 5 7 9 7 10 17 16 9 7 9 8 9 19 25 17 8 7 8 5 5 5 5 5 6 5 4 4 3 3 6 8 9 9 7 9 12 11 6 7 12 15 17 19 19 14 8 6 6 7 9 12 11 5 2 5 13 18 18 17 16 16 18 19 19 17 13 8 6 11 17 19
9 9 7 8 11 13 16 17 10 4 4 5 6 7 6 7 9 8 7 11 13 11 12 14 13 17 23 19 10 7 9 10 9 8 7 5 6 6 6 4 3 3 6 9 10 10 10 9 10 10 8 7 13 19 20 18 16 11 7 5 6 6 8 9 7 3 1 6 16 20 19 16 14 15 16 16 15 12 7 5 6 9 15 19 16
Height
5921 5922 5922 5923 5924 5924 5925 5925 5926 5926 5927 5927 5928 5929 5929 5930 5930 5930 5931 5932 5931 5931 5931 5931 5932 5932 5932 5932 5932 5932 5933 5933 5933 5932 5932 5933 5931 5931 5932 5932 5931 5931 5929 5926 5927 5928 5928 5927 5928 5927 5927 5926 5926 5925 5925 5924 5923 5922 5921 5920 5919 5918 5917 5916 5915 5914 5913 5912 5911 5909 5908 5907 5907 5906 5905 5904 5904 5903 5902 5901 5899 5899 5898 5897 5897
5921 5921 5922 5922 5923 5923 5924 5925 5925 5926 5926 5927 5928 5928 5929 5929 5929 5929 5930 5931 5930 5930 5930 5931 5931 5932 5932 5932 5932 5932 5932 5933 5933 5932 5931 5931 5931 5930 5930 5930 5929 5929 5927 5925 5926 5927 5927 5927 5927 5927 5926 5925 5925 5924 5924 5923 5922 5921 5920 5919 5918 5917 5916 5915 5914 5913 5912 5911 5909 5908 5906 5905 5904 5903 5903 5903 5902 5901 5901 5900 5898 5897 5896 5895 5895
5920 5921 5921 5922 5922 5923 5923 5924 5924 5924 5925 5926 5927 5927 5928 5928 5928 5929 5929 5929 5929 5929 5930 5930 5931 5931 5931 5932 5932 5932 5932 5932 5932 5931 5930 5930 5930 5930 5929 5928 5927 5927 5927 5927 5927 5927 5927 5926 5926 5925 5925 5924 5923 5922 5922 5922 5921 5920 5919 5918 5917 5915 5914 5913 5913 5912 5911 5910 5909 5907 5905 5904 5902 5901 5901 5900 5900 5899 5899 5898 5897 5895 5894 5894 5893
5919 5920 5920 5921 5922 5922 5922 5923 5923 5923 5924 5925 5925 5926 5926 5927 5927 5928 5928 5928 5929 5929 5929 5929 5930 5930 5930 5931 5931 5931 5931 5931 5931 5930 5929 5929 5929 5929 5927 5926 5926 5926 5927 5927 5927 5927 5926 5925 5924 5924 5923 5922 5921 5921 5921 5920 5919 5918 5917 5916 5915 5914 5913 5912 5911 5910 5909 5909 5907 5906 5905 5903 5901 5900 5899 5899 5898 5897 5897 5896 5895 5894 5892 5891 5891
5918 5919 5919 5920 5920 5921 5921 5922 5922 5923 5923 5924 5924 5925 5925 5926 5926 5927 5927 5928 5929 5929 5929 5929 5929 5929 5930 5930 5929 5929 5929 5929 5929 5928 5928 5927 5927 5927 5926 5925 5926 5926 5926 5925 5925 5925 5924 5923 5923 5921 5920 5920 5920 5920 5919 5919 5917 5916 5915 5914 5913 5912 5911 5910 5909 5908 5908 5907 5906 5905 5904 5902 5901 5899 5898 5897 5896 5896 5895 5894 5893 5892 5891 5889 5888
5917 5917 5918 5918 5919 5919 5920 5920 5921 5921 5922 5922 5923 5923 5924 5925 5925 5926 5926 5927 5928 5929 5929 5928 5928 5928 5928 5928 5928 5928 5927 5927 5926 5926 5926 5926 5926 5925 5925 5925 5925 5925 5924 5923 5923 5922 5922 5921 5920 5919 5919 5919 5919 5918 5918 5917 5915 5914 5913 5912 5911 5910 5910 5909 5908 5907 5906 5905 5904 5903 5903 5901 5900 5899 5897 5896 5895 5894 5893 5892 5891 5890 5889 5888 5887
5915 5916 5916 5916 5917 5918 5918 5919 5919 5920 5920 5921 5921 5922 5923 5923 5924 5924 5924 5925 5926 5927 5928 5927 5927 5927 5926 5926 5926 5926 5925 5925 5925 5924 5924 5924 5924 5924 5924 5924 5923 5922 5922 5921 5921 5920 5919 5918 5917 5917 5917 5916 5916 5916 5916 5914 5913 5912 5911 5910 5909 5908 5908 5907 5906 5905 5904 5903 5903 5902 5901 5900 5899 5898 5896 5895 5893 5892 5891 5890 5889 5888 5887 5886 5885
5913 5914 5914 5915 5915 5916 5916 5917 5918 5918 5918 5919 5920 5920 5921 5922 5922 5923 5923 5924 5924 5925 5926 5926 5925 5925 5925 5925 5925 5924 5924 5923 5923 5923 5923 5923 5922 5922 5922 5921 5921 5920 5919 5918 5918 5917 5916 5916 5915 5915 5914 5914 5914 5913 5913 5912 5911 5910 5909 5908 5908 5907 5906 5905 5904 5903 5902 5901 5901 5900 5899 5898 5897 5896 5895 5893 5892 5891 5889 5888 5887 5886 5885 5884 5883
5912 5912 5912 5913 5913 5914 5914 5915 5916 5916 5917 5918 5918 5919 5919 5920 5921 5921 5922 5922 5922 5923 5923 5924 5923 5923 5923 5923 5923 5922 5922 5922 5921 5921 5921 5921 5921 5920 5920 5919 5918 5917 5916 5916 5915 5915 5914 5913 5913 5912 5911 5911 5910 5910 5909 5909 5908 5908 5907 5906 5906 5905 5904 5903 5902 5901 5900 5899 5898 5898 5897 5896 5894 5893 5892 5891 5890 5889 5887 5886 5884 5883 5882 5881 5880
5910 5910 5911 5911 5911 5912 5912 5913 5913 5914 5915 5916 5916 5917 5917 5918 5919 5919 5920 5920 5921 5921 5921 5921 5921 5921 5922 5922 5921 5921 5920 5920 5920 5920 5919 5919 5919 5918 5917 5916 5916 5914 5914 5913 5912 5912 5911 5910 5909 5908 5908 5907 5906 5906 5905 5905 5905 5905 5904 5904 5904 5903 5902 5901 5900 5898 5897 5897 5896 5895 5894 5893 5892 5891 5889 5888 5887 5886 5884 5883 5882 5881 5880 5879 5878
5908 5908 5909 5909 5909 5910 5910 5911 5911 5912 5913 5913 5914 5915 5915 5916 5916 5917 5917 5918 5919 5919 5919 5919 5919 5919 5919 5919 5919 5918 5918 5918 5918 5918 5917 5917 5916 5915 5915 5914 5913 5911 5910 5909 5909 5908 5907 5906 5906 5905 5904 5903 5902 5902 5902 5902 5902 5901 5901 5901 5900 5900 5899 5898 5897 5896 5895 5894 5893 5892 5892 5891 5890 5888 5887 5885 5884 5882 5881 5880 5878 5877 5876 5875 5875
5906 5906 5907 5907 5907 5908 5908 5909 5909 5910 5910 5911 5911 5912 5912 5913 5913 5914 5914 5915 5916 5917 5917 5917 5917 5917 5917 5917 5916 5916 5916 5916 5916 5916 5915 5915 5914 5913 5912 5911 5909 5908 5907 5906 5905 5905 5904 5903 5902 5901 5900 5899 5899 5898 5898 5898 5898 5898 5898 5897 5897 5896 5896 5895 5895 5894 5893 5891 5890 5890 5889 5888 5887 5885 5884 5883 5882 5880 5879 5877 5876 5875 5873 5872 5871
5903 5904 5904 5905 5905 5906 5907 5907 5907 5908 5908 5908 5909 5909 5910 5910 5910 5911 5912 5913 5913 5914 5914 5914 5914 5914 5914 5914 5914 5914 5914 5914 5914 5914 5913 5912 5911 5910 5909 5908 5906 5905 5904 5903 5902 5901 5901 5900 5899 5898 5897 5896 5895 5894 5894 5894 5894 5894 5894 5894 5893 5893 5893 5892 5891 5891 5890 5889 5888 5887 5886 5885 5884 5883 5881 5880 5879 5878 5877 5876 5874 5873 5871 5870 5869
5901 5901 5902 5902 5903 5904 5905 5905 5905 5906 5906 5906 5906 5907 5908 5908 5908 5909 5909 5910 5911 5911 5911 5911 5911 5911 5912 5911 5911 5912 5912 5912 5912 5911 5910 5909 5908 5907 5906 5905 5903 5902 5901 5900 5899 5898 5897 5896 5896 5895 5894 5893 5892 5891 5891 5891 5890 5890 5890 5890 5890 5889 5889 5889 5888 5887 5887 5886 5885 5884 5883 5882 5880 5879 5878 5877 5876 5875 5874 5873 5872 5871 5869 5868 5867
5900 5900 5900 5901 5902 5902 5903 5903 5903 5904 5904 5904 5904 5904 5905 5906 5906 5906 5907 5908 5908 5908 5908 5909 5909 5909 5909 5909 5909 5909 5909 5909 5909 5908 5907 5906 5905 5904 5903 5902 5900 5899 5898 5897 5895 5894 5893 5893 5892 5892 5891 5890 5889 5888 5887 5886 5886 5886 5886 5886 5886 5886 5886 5886 5885 5884 5883 5883 5882 5880 5879 5878 5877 5876 5874 5873 5872 5871 5871 5870 5869 5868 5867 5866 5865
5899 5899 5899 5899 5900 5900 5901 5901 5901 5902 5901 5901 5901 5901 5902 5903 5903 5904 5904 5905 5905 5906 5906 5906 5906 5907 5906 5906 5906 5906 5906 5906 5905 5905 5904 5903 5902 5901 5900 5898 5897 5896 5895 5894 5893 5891 5890 5890 5889 5889 5888 5887 5886 5885 5884 5883 5882 5882 5882 5882 5882 5882 5882 5882 5881 5880 5880 5879 5878 5877 5875 5874 5873 5872 5871 5870 5869 5868 5867 5867 5866 5865 5864 5863 5862
5897 5897 5897 5897 5898 5899 5899 5899 5899 5899 5899 5899 5899 5899 5899 5900 5900 5901 5902 5903 5904 5904 5904 5904 5904 5904 5904 5904 5903 5903 5903 5902 5902 5901 5901 5900 5899 5898 5897 5896 5895 5894 5893 5892 5890 5889 5888 5887 5886 5886 5885 5884 5883 5882 5881 5880 5879 5879 5879 5878 5878 5877 5877 5877 5876 5875 5875 5874 5873 5872 5871 5871 5870 5868 5867 5866 5865 5864 5863 5862 5861 5860 5860 5859 5858
5895 5895 5895 5896 5896 5897 5897 5897 5897 5897 5897 5897 5897 5896 5896 5897 5898 5899 5900 5901 5902 5901 5902 5902 5902 5902 5902 5901 5901 5900 5900 5899 5899 5898 5898 5897 5897 5897 5895 5894 5893 5892 5891 5889 5888 5887 5886 5885 5884 5883 5882 5881 5880 5879 5878 5877 5876 5876 5875 5874 5874 5873 5873 5872 5871 5871 5870 5870 5869 5868 5867 5867 5866 5864 5863 5862 5861 5860 5858 5857 5856 5856 5855 5854 5854
5893 5893 5893 5894 5894 5895 5895 5895 5895 5895 5895 5895 5894 5894 5894 5895 5896 5897 5898 5899 5899 5899 5900 5900 5899 5899 5899 5899 5898 5898 5897 5896 5896 5895 5895 5895 5895 5894 5893 5892 5890 5889 5888 5886 5885 5884 5883 5882 5881 5880 5879 5878 5877 5876 5875 5874 5873 5873 5872 5871 5870 5869 5869 5868 5867 5867 5866 5865 5865 5864 5863 5863 5862 5860 5859 5858 5857 5856 5854 5853 5852 5851 5850 5849 5849
5892 5891 5891 5892 5892 5893 5893 5893 5893 5893 5893 5892 5892 5892 5892 5893 5893 5894 5895 5896 5896 5897 5897 5897 5897 5897 5897 5896 5896 5895 5895 5894 5893 5893 5893 5893 5892 5890 5889 5888 5886 5885 5884 5882 5881 5880 5880 5879 5878 5878 5877 5876 5874 5873 5873 5872 5870 5870 5869 5867 5866 5866 5865 5864 5863 5863 5863 5862 5861 5860 5860 5859 5858 5857 5855 5854 5853 5852 5850 5849 5848 5847 5846 5845 5844
5890 5889 5889 5889 5890 5891 5891 5891 5891 5891 5891 5890 5890 5890 5890 5890 5891 5892 5892 5893 5894 5895 5895 5895 5895 5895 5894 5894 5894 5894 5893 5891 5890 5890 5890 5889 5888 5887 5886 5884 5882 5881 5879 5878 5877 5876 5875 5874 5874 5873 5873 5872 5871 5870 5869 5868 5867 5866 5865 5864 5863 5862 5861 5860 5860 5860 5859 5859 5858 5857 5856 5855 5854 5853 5852 5850 5849 5848 5847 5846 5845 5843 5842 5842 5841
5887 5887 5887 5887 5887 5888 5888 5889 5889 5889 5889 5888 5888 5888 5888 5889 5889 5889 5890 5891 5892 5893 5893 5893 5893 5893 5893 5893 5892 5891 5890 5889 5888 5887 5886 5886 5884 5883 5882 5880 5878 5876 5874 5874 5874 5873 5871 5870 5869 5869 5868 5867 5867 5866 5865 5864 5862 5861 5861 5860 5860 5859 5858 5857 5856 5856 5855 5855 5854 5853 5852 5851 5850 5849 5848 5847 5846 5845 5844 5843 5841 5840 5838 5837 5836
5884 5884 5884 5884 5885 5885 5885 5886 5887 5887 5887 5887 5886 5887 5887 5887 5887 5888 5889 5890 5890 5891 5891 5891 5891 5891 5891 5891 5889 5889 5888 5887 5886 5884 5883 5883 5881 5880 5878 5876 5874 5871 5869 5869 5870 5869 5868 5867 5866 5865 5864 5863 5862 5861 5860 5859 5858 5857 5856 5855 5855 5855 5854 5853 5852 5851 5851 5850 5850 5849 5848 5847 5846 5845 5844 5843 5842 5841 5840 5839 5837 5836 5835 5833 5832
5881 5881 5882 5882 5882 5882 5882 5884 5884 5884 5885 5885 5885 5885 5885 5886 5886 5886 5887 5888 5888 5889 5889 5889 5889 5889 5889 5888 5887 5886 5885 5884 5883 5882 5881 5880 5879 5877 5875 5873 5873 5870 5866 5865 5867 5866 5866 5865 5863 5862 5860 5858 5857 5857 5856 5855 5854 5852 5852 5851 5850 5850 5849 5848 5847 5847 5846 5846 5845 5844 5844 5843 5842 5841 5840 5839 5838 5837 5836 5834 5833 5832 5831 5829 5827
5878 5878 5879 5879 5879 5880 5880 5881 5882 5882 5883 5883 5883 5884 5884 5884 5884 5884 5885 5886 5886 5887 5887 5887 5886 5886 5885 5885 5884 5882 5881 5880 5878 5877 5877 5877 5876 5875 5873 5871 5871 5869 5865 5863 5863 5863 5862 5860 5859 5858 5856 5855 5853 5853 5853 5852 5849 5848 5847 5846 5845 5844 5844 5843 5843 5842 5841 5841 5840 5840 5839 5838 5837 5837 5836 5835 5833 5832 5831 5830 5829 5828 5826 5824 5822
5874 5875 5876 5876 5877 5878 5878 5879 5879 5879 5880 5880 5881 5881 5882 5882 5883 5883 5884 5884 5884 5884 5884 5884 5885 5884 5882 5882 5881 5879 5877 5876 5874 5873 5873 5872 5872 5872 5870 5868 5867 5865 5863 5861 5860 5860 5859 5857 5855 5854 5853 5852 5851 5851 5850 5848 5845 5843 5841 5840 5839 5838 5837 5837 5837 5836 5835 5835 5835 5835 5834 5833 5832 5832 5831 5830 5829 5828 5827 5826 5825 5823 5822 5820 5818
5871 5871 5872 5873 5874 5875 5875 5876 5876 5877 5878 5878 5879 5879 5880 5881 5881 5881 5882 5882 5882 5882 5882 5883 5883 5880 5879 5879 5878 5876 5875 5875 5874 5871 5868 5867 5869 5869 5867 5865 5864 5863 5861 5860 5859 5858 5857 5854 5853 5851 5850 5850 5848 5847 5846 5844 5841 5838 5835 5833 5832 5832 5831 5831 5830 5830 5829 5830 5830 5829 5828 5828 5827 5827 5826 5825 5824 5823 5822 5820 5820 5818 5816 5815 5812
5868 5868 5870 5871 5872 5872 5873 5873 5873 5874 5875 5875 5876 5877 5878 5878 5879 5879 5880 5880 5880 5880 5880 5881 5879 5876 5876 5876 5875 5874 5873 5873 5871 5867 5864 5864 5865 5866 5864 5862 5861 5860 5858 5857 5856 5855 5853 5852 5851 5849 5847 5845 5843 5842 5840 5838 5835 5832 5829 5827 5826 5825 5825 5825 5825 5825 5824 5824 5824 5824 5824 5823 5822 5822 5821 5821 5819 5818 5816 5815 5814 5812 5810 5808 5806
5865 5866 5867 5868 5869 5870 5871 5871 5871 5871 5872 5872 5873 5874 5875 5876 5876 5877 5877 5877 5877 5878 5878 5878 5875 5874 5875 5874 5872 5871 5871 5870 5867 5864 5863 5863 5863 5863 5861 5859 5857 5857 5856 5855 5854 5852 5851 5849 5847 5845 5842 5840 5838 5836 5834 5831 5828 5825 5823 5822 5821 5820 5819 5819 5820 5820 5819 5819 5819 5819 5819 5818 5818 5817 5816 5815 5814 5813 5811 5809 5807 5806 5804 5802 5800
5863 5864 5864 5865 5866 5867 5868 5868 5868 5868 5869 5870 5871 5872 5873 5873 5873 5874 5874 5874 5875 5875 5876 5874 5872 5872 5872 5870 5868 5868 5867 5867 5866 5862 5861 5860 5858 5859 5859 5857 5855 5854 5853 5853 5852 5849 5847 5845 5843 5840 5837 5835 5833 5831 5828 5824 5821 5819 5817 5816 5816 5815 5814 5814 5815 5815 5814 5814 5814 5813 5813 5812 5812 5811 5810 5809 5808 5807 5806 5803 5802 5801 5799 5796 5794
5859 5860 5861 5862 5862 5864 5865 5866 5866 5866 5867 5867 5868 5869 5869 5870 5870 5871 5871 5872 5872 5872 5872 5871 5870 5870 5869 5867 5867 5866 5864 5864 5863 5861 5858 5855 5853 5853 5853 5852 5851 5851 5850 5850 5848 5845 5842 5839 5837 5835 5833 5831 5829 5826 5822 5818 5815 5813 5811 5811 5810 5809 5808 5809 5810 5810 5809 5809 5808 5807 5806 5807 5806 5805 5804 5803 5802 5801 5799 5797 5796 5795 5793 5791 5788
5855 5856 5858 5859 5859 5861 5863 5863 5863 5863 5864 5865 5865 5866 5866 5866 5867 5868 5868 5869 5869 5869 5868 5867 5867 5868 5867 5866 5866 5865 5863 5861 5860 5858 5857 5854 5852 5851 5850 5849 5848 5848 5847 5847 5845 5842 5840 5837 5834 5832 5830 5827 5825 5821 5817 5813 5811 5808 5807 5805 5804 5804 5803 5803 5804 5804 5804 5803 5803 5801 5801 5802 5801 5799 5799 5798 5797 5795 5793 5792 5791 5790 5787 5784 5782
5851 5853 5855 5855 5856 5858 5860 5860 5860 5860 5861 5862 5862 5863 5863 5863 5863 5864 5865 5865 5865 5865 5864 5864 5864 5865 5864 5863 5863 5861 5860 5858 5856 5855 5854 5853 5851 5850 5848 5847 5845 5845 5844 5843 5841 5839 5837 5835 5832 5829 5826 5823 5819 5816 5813 5809 5807 5805 5802 5801 5800 5798 5798 5798 5798 5800 5800 5799 5798 5798 5797 5797 5796 5795 5794 5793 5791 5790 5788 5786 5784 5783 5780 5777 5775
5847 5849 5851 5852 5853 5855 5856 5856 5857 5857 5858 5858 5859 5859 5860 5860 5860 5860 5861 5861 5861 5861 5860 5860 5860 5860 5860 5859 5859 5858 5856 5854 5853 5852 5851 5850 5849 5846 5844 5843 5841 5840 5838 5837 5835 5833 5832 5829 5827 5824 5821 5818 5815 5811 5808 5805 5803 5801 5798 5797 5796 5795 5794 5795 5795 5796 5796 5795 5794 5794 5792 5792 5791 5791 5789 5787 5786 5785 5784 5781 5778 5776 5773 5771 5769
5842 5845 5847 5847 5849 5851 5852 5853 5854 5854 5854 5854 5855 5856 5856 5856 5857 5857 5857 5858 5858 5857 5857 5857 5857 5857 5856 5855 5854 5853 5852 5850 5849 5847 5847 5847 5845 5842 5840 5838 5836 5834 5832 5830 5828 5827 5826 5824 5822 5819 5817 5814 5811 5807 5804 5801 5799 5797 5795 5794 5792 5791 5791 5791 5791 5791 5791 5790 5789 5788 5787 5787 5786 5785 5784 5782 5780 5779 5778 5776 5773 5770 5767 5764 5762
5838 5841 5842 5844 5846 5848 5848 5849 5850 5850 5850 5851 5851 5852 5853 5853 5853 5854 5854 5854 5854 5854 5854 5854 5854 5853 5853 5852 5850 5849 5848 5846 5844 5843 5842 5842 5840 5838 5836 5834 5832 5830 5827 5825 5824 5822 5821 5819 5816 5815 5812 5809 5807 5804 5801 5798 5796 5794 5792 5791 5789 5788 5787 5788 5788 5788 5787 5786 5785 5784 5783 5781 5781 5780 5778 5777 5775 5774 5772 5770 5767 5764 5761 5757 5755
5834 5837 5839 5840 5842 5844 5845 5845 5845 5845 5846 5846 5847 5848 5849 5850 5850 5851 5851 5851 5851 5851 5851 5850 5850 5850 5849 5848 5847 5845 5844 5842 5840 5839 5838 5837 5834 5833 5831 5829 5827 5826 5824 5822 5820 5818 5816 5814 5812 5811 5809 5806 5803 5800 5798 5795 5793 5791 5790 5788 5786 5785 5785 5784 5785 5784 5783 5782 5780 5779 5778 5777 5775 5775 5773 5771 5769 5767 5765 5763 5760 5757 5754 5751 5748
5830 5832 5835 5836 5838 5841 5842 5841 5842 5841 5841 5843 5844 5844 5846 5848 5848 5847 5848 5848 5848 5848 5846 5846 5845 5845 5844 5843 5842 5841 5839 5837 5835 5834 5833 5832 5829 5827 5826 5824 5822 5821 5819 5817 5815 5813 5811 5810 5808 5807 5805 5802 5799 5796 5793 5791 5790 5788 5787 5785 5783 5782 5781 5780 5781 5780 5779 5777 5776 5774 5773 5772 5770 5769 5767 5765 5762 5760 5757 5755 5753 5750 5747 5745 5742
5826 5828 5830 5832 5835 5837 5838 5838 5839 5838 5839 5840 5840 5841 5843 5844 5844 5843 5843 5844 5844 5843 5842 5841 5840 5839 5839 5838 5837 5836 5834 5832 5830 5829 5828 5826 5824 5822 5820 5818 5816 5815 5813 5811 5809 5808 5806 5805 5804 5803 5801 5798 5795 5792 5790 5788 5787 5785 5784 5782 5780 5779 5778 5777 5777 5776 5774 5772 5771 5769 5767 5765 5764 5762 5760 5757 5755 5753 5750 5748 5746 5743 5740 5738 5736
5822 5824 5826 5828 5830 5832 5833 5834 5834 5835 5836 5836 5837 5837 5838 5839 5839 5839 5838 5839 5839 5838 5837 5836 5835 5834 5833 5832 5831 5830 5829 5826 5825 5823 5822 5820 5818 5816 5814 5812 5810 5809 5807 5805 5804 5803 5802 5801 5800 5799 5797 5795 5792 5789 5787 5786 5785 5783 5782 5780 5778 5777 5776 5774 5773 5771 5768 5766 5765 5763 5761 5759 5757 5755 5753 5751 5749 5746 5743 5741 5739 5736 5734 5732 5729
5818 5821 5823 5824 5825 5827 5828 5829 5830 5831 5832 5832 5833 5833 5834 5834 5834 5833 5833 5834 5834 5833 5831 5830 5829 5828 5827 5826 5826 5824 5822 5820 5819 5817 5816 5814 5812 5810 5808 5806 5805 5804 5802 5800 5799 5798 5797 5797 5795 5794 5792 5790 5788 5786 5785 5784 5783 5781 5779 5777 5775 5773 5772 5770 5767 5765 5763 5760 5758 5757 5755 5753 5751 5749 5747 5744 5742 5739 5736 5734 5732 5730 5728 5725 5723
5814 5816 5818 5819 5821 5823 5824 5825 5826 5827 5828 5828 5829 5829 5829 5829 5829 5829 5828 5829 5828 5827 5825 5824 5823 5822 5822 5821 5820 5818 5815 5814 5812 5810 5809 5807 5805 5804 5802 5801 5800 5798 5796 5795 5793 5793 5792 5791 5789 5788 5786 5785 5784 5783 5782 5781 5779 5777 5775 5772 5770 5768 5766 5763 5761 5759 5757 5754 5752 5750 5748 5746 5744 5742 5740 5737 5735 5732 5730 5728 5726 5723 5721 5718 5716
5809 5811 5812 5814 5816 5817 5819 5820 5821 5822 5823 5823 5823 5823 5823 5823 5823 5824 5824 5823 5822 5821 5820 5819 5818 5817 5816 5815 5813 5811 5809 5807 5805 5805 5804 5801 5798 5797 5796 5795 5794 5792 5791 5789 5788 5787 5786 5785 5783 5782 5780 5779 5778 5778 5776 5775 5772 5770 5768 5765 5763 5761 5759 5757 5755 5753 5751 5748 5746 5744 5742 5740 5737 5735 5733 5730 5728 5726 5724 5722 5719 5717 5715 5712 5709
5804 5806 5807 5809 5810 5812 5814 5815 5816 5816 5817 5817 5817 5817 5817 5818 5818 5818 5818 5817 5816 5816 5815 5814 5813 5812 5810 5808 5806 5804 5802 5800 5800 5799 5796 5793 5791 5791 5790 5789 5788 5786 5785 5784 5783 5782 5781 5779 5778 5776 5775 5774 5773 5771 5769 5767 5764 5762 5759 5757 5755 5753 5751 5750 5749 5747 5745 5742 5740 5737 5735 5733 5731 5729 5727 5724 5722 5720 5718 5716 5713 5711 5708 5706 5703
5799 5801 5802 5803 5805 5807 5808 5809 5810 5810 5811 5811 5811 5812 5812 5812 5813 5813 5812 5810 5810 5810 5810 5808 5807 5806 5804 5802 5800 5798 5797 5796 5794 5792 5789 5786 5785 5785 5784 5783 5782 5781 5780 5779 5778 5777 5776 5774 5773 5772 5770 5769 5767 5764 5762 5759 5757 5754 5752 5749 5747 5746 5744 5743 5742 5740 5738 5735 5733 5731 5729 5727 5725 5723 5721 5719 5717 5715 5712 5710 5707 5705 5702 5700 5697
5794 5795 5796 5798 5800 5802 5802 5803 5804 5805 5805 5806 5807 5807 5807 5806 5807 5807 5806 5805 5805 5805 5804 5802 5801 5799 5798 5796 5795 5793 5792 5791 5788 5785 5783 5782 5781 5780 5780 5779 5778 5776 5776 5775 5773 5772 5771 5769 5767 5766 5764 5762 5760 5758 5755 5752 5750 5748 5745 5743 5742 5740 5738 5737 5735 5734 5732 5730 5728 5725 5723 5721 5719 5717 5715 5713 5711 5709 5707 5704 5702 5699 5696 5694 5692
5787 5789 5790 5792 5794 5795 5797 5798 5799 5799 5800 5801 5802 5802 5802 5801 5801 5801 5801 5801 5801 5800 5799 5797 5796 5794 5793 5792 5791 5788 5787 5785 5783 5780 5779 5778 5777 5776 5776 5774 5773 5772 5770 5769 5768 5766 5765 5763 5762 5760 5759 5757 5754 5752 5749 5746 5744 5743 5741 5738 5736 5734 5733 5731 5730 5728 5726 5724 5722 5719 5717 5715 5713 5711 5710 5708 5706 5704 5701 5699 5696 5693 5691 5689 5687
5780 5782 5784 5785 5787 5789 5790 5791 5792 5793 5794 5796 5797 5797 5796 5796 5796 5796 5796 5796 5795 5795 5793 5792 5790 5789 5788 5787 5785 5783 5782 5780 5778 5776 5775 5774 5773 5772 5771 5769 5768 5766 5765 5763 5762 5760 5759 5757 5756 5754 5753 5751 5749 5746 5744 5742 5741 5739 5737 5733 5731 5729 5727 5726 5724 5723 5721 5718 5716 5713 5711 5709 5708 5706 5705 5703 5700 5698 5695 5693 5690 5688 5686 5684 5682
5774 5776 5777 5779 5780 5782 5783 5784 5785 5787 5789 5790 5791 5791 5791 5791 5791 5791 5791 5791 5790 5789 5788 5786 5785 5783 5782 5781 5779 5778 5777 5775 5773 5772 5771 5769 5768 5766 5765 5764 5762 5761 5759 5758 5756 5755 5753 5751 5750 5749 5747 5745 5743 5741 5740 5737 5735 5733 5730 5727 5725 5724 5722 5720 5719 5717 5715 5713 5711 5708 5706 5704 5702 5701 5699 5697 5694 5692 5689 5687 5685 5683 5681 5679 5677
5768 5769 5771 5771 5773 5775 5777 5779 5780 5782 5784 5785 5785 5785 5786 5786 5786 5786 5786 5785 5784 5783 5781 5780 5779 5777 5776 5775 5773 5772 5771 5770 5768 5766 5765 5765 5763 5762 5760 5759 5757 5756 5755 5753 5751 5750 5747 5746 5744 5743 5741 5739 5736 5735 5733 5730 5728 5726 5724 5723 5721 5719 5717 5715 5713 5711 5709 5708 5705 5703 5700 5699 5697 5695 5693 5690 5688 5686 5684 5682 5680 5678 5676 5675 5673
5761 5763 5764 5765 5766 5768 5771 5773 5775 5777 5778 5779 5780 5780 5780 5780 5779 5779 5778 5778 5777 5776 5775 5774 5772 5771 5770 5769 5768 5766 5765 5764 5762 5761 5760 5759 5758 5757 5755 5753 5752 5751 5750 5748 5746 5744 5742 5740 5739 5737 5734 5732 5729 5728 5726 5724 5723 5721 5720 5718 5716 5714 5712 5710 5708 5706 5704 5702 5700 5697 5695 5694 5692 5690 5687 5685 5683 5681 5679 5677 5675 5674 5672 5671 5670